Weather observations for the past three days for
St. Cloud Regional Airport
Imperial (Metric)
Date Time (cdt) Wind (mph) Vis. (mi.) Weather Sky Cond. Temperature (ºF) Relative Humidity Wind Chill (°F) Heat Index (°F) Pressure Precipitation (in)
Air Dwpt 6 hour altimeter (in) sea level (mb) 1 hr 3 hr 6 hr
Max. Min.
12 23:53 Calm 10.00 Fair CLR 64.9 62.1 90% 29.67 1005.0
12 22:53 Calm 10.00 Fair CLR 66.9 64 91% 29.67 1005.1
12 21:53 S 5 10.00 Thunderstorm in Vicinity FEW070 SCT090 68 64.9 90% 29.66 1004.8 0.64
12 20:53 S 7 10.00 Thunderstorm SCT055 SCT075 69.1 66 90% 29.65 1004.5 0.46
12 19:53 NW 35 G 54 0.75 Thunderstorm Heavy Rain Fog/Mist and Windy SCT029 SCT048 BKN055 66.9 63 87% 29.65 1004.7 0.18
12 18:53 S 7 10.00 Fair CLR 78.1 68 82 75 71% 80 29.62 1003.2
12 17:53 S 16 10.00 Fair CLR 79 66.9 67% 81 29.64 1003.9
12 16:53 S 16 G 26 10.00 Fair CLR 80.1 66.9 64% 82 29.67 1005.1
12 15:53 S 18 G 28 10.00 Fair CLR 81 66 61% 83 29.68 1005.6
12 14:53 S 15 G 28 10.00 Fair CLR 80.1 66 62% 82 29.68 1005.5
12 13:53 S 14 G 22 10.00 A Few Clouds FEW090 78.1 66 67% 80 29.7 1006.1
12 12:53 S 17 G 23 10.00 A Few Clouds FEW080 75 64 75 61 69% 77 29.71 1006.4 0.02
12 11:53 S 13 G 22 10.00 Fair CLR 71.1 63 76% 29.71 1006.4
12 10:53 SE 15 10.00 Fair CLR 68 59 73% 29.71 1006.7
12 09:53 S 8 10.00 Fair CLR 64.9 59 81% 29.75 1007.9 0.01 0.02
12 08:53 SE 7 10.00 Mostly Cloudy BKN110 64 55.9 75% 29.76 1008.2
12 07:53 S 8 10.00 A Few Clouds FEW110 64 55.9 75% 29.78 1008.6 0.01
12 06:53 S 10 10.00 Light Rain OVC085 61 57 61 54 87% 29.76 1008.1 0.04 0.04
12 05:53 SE 7 10.00 Mostly Cloudy BKN110 60.1 54 80% 29.75 1007.7
12 04:53 SE 5 10.00 Fair CLR 55 53.1 93% 29.78 1008.9
12 03:53 Calm 10.00 Fair CLR 55 53.1 93% 29.8 1009.4
12 02:53 Calm 10.00 Fair CLR 55.9 53.1 90% 29.8 1009.5
12 01:53 Calm 10.00 Fair CLR 57.9 55 90% 29.81 1009.8
12 00:53 Calm 10.00 Fair CLR 60.1 54 81 57.9 80% 29.81 1009.9
11 23:53 Calm 10.00 Fair CLR 62.1 55 78% 29.8 1009.6
11 22:53 S 3 10.00 Fair CLR 64 55 73% 29.8 1009.5
11 21:53 W 3 10.00 Fair CLR 68 55.9 65% 29.79 1009.1
11 20:53 NW 3 10.00 Fair CLR 73 54 51% 29.77 1008.4
11 19:53 W 6 10.00 Fair CLR 79 53.1 41% 79 29.76 1008.1
11 18:53 W 12 10.00 Fair CLR 81 51.1 82 78.1 35% 80 29.76 1008.0
11 17:53 W 14 10.00 Partly Cloudy SCT075 82 52 35% 81 29.75 1007.9
11 16:53 W 16 G 25 10.00 A Few Clouds FEW070 81 51.1 35% 80 29.76 1008.1
11 15:53 NW 18 G 28 10.00 Mostly Cloudy BKN070 82 53.1 37% 81 29.76 1008.2
11 14:53 W 18 G 29 10.00 A Few Clouds FEW075 82 53.1 37% 81 29.77 1008.4
11 13:53 W 22 G 28 10.00 Fair and Breezy CLR 80.1 55 42% 80 29.77 1008.2
11 12:53 W 12 G 21 10.00 Mostly Cloudy SCT040 SCT047 BKN060 78.1 60.1 78.1 57 54% 79 29.77 1008.3
11 11:53 W 8 10.00 Fair CLR 75.9 60.1 58% 78 29.77 1008.6
11 10:53 SW 9 10.00 Fair CLR 70 57 64% 29.78 1009.0
11 09:53 S 7 10.00 Mostly Cloudy BKN036 64.9 55 70% 29.79 1009.5
11 08:53 S 8 10.00 Overcast OVC038 60.1 53.1 78% 29.8 1009.6
11 07:53 S 12 10.00 Overcast OVC048 57.9 53.1 84% 29.8 1009.8
11 05:53 S 10 9.00 Light Rain OVC050 57 52 83% 29.84 1011.0 0.08
11 04:53 S 9 10.00 Overcast BKN100 OVC110 61 48.9 65% 29.86 1011.6
11 03:53 SE 7 10.00 Overcast FEW090 OVC110 63 45 52% 29.87 1011.8
11 02:53 SE 6 10.00 Mostly Cloudy BKN110 63 46 54% 29.87 1012.0
11 01:53 SE 9 10.00 Partly Cloudy SCT110 63 46 54% 29.87 1012.1
11 00:53 SE 7 10.00 Fair CLR 61 46.9 73 60.1 60% 29.9 1013.1
10 23:53 SE 6 10.00 Fair CLR 60.1 46 60% 29.92 1013.9
10 22:53 E 5 10.00 Fair CLR 61 46 58% 29.94 1014.7
10 21:53 E 6 10.00 Fair CLR 63 46 54% 29.95 1014.9
10 20:53 S 3 10.00 Fair CLR 66 46.9 50% 29.94 1014.4
10 19:53 S 6 10.00 Fair CLR 68 44.1 42% 29.94 1014.5
10 18:53 S 8 10.00 Fair CLR 73 44.1 73.9 70 35% 29.95 1015.0
10 17:53 Vrbl 6 10.00 Fair CLR 72 44.1 37% 29.96 1015.3
10 16:53 E 9 10.00 Fair CLR 73 42.1 33% 29.98 1015.8
10 15:53 E 9 10.00 Fair CLR 73.9 42.1 32% 30 1016.5
10 14:53 E 12 10.00 Fair CLR 72 42.1 34% 30.02 1017.3
10 13:53 Vrbl 6 10.00 Fair CLR 71.1 42.1 35% 30.04 1017.8
10 12:53 Vrbl 5 10.00 Fair CLR 72 41 72 53.1 33% 30.06 1018.8
10 11:53 Calm 10.00 Fair CLR 69.1 42.1 38% 30.08 1019.4
10 10:53 SW 3 10.00 Fair CLR 66 43 43% 30.1 1019.9
10 09:53 Calm 10.00 Fair CLR 64.9 48 54% 30.11 1020.2
10 08:53 NE 3 10.00 Fair CLR 62.1 48.9 62% 30.12 1020.6
10 07:53 N 5 10.00 Fair CLR 57 50 78% 30.12 1020.9
10 06:53 N 3 10.00 Fair CLR 53.1 48 54 48 83% 30.12 1020.7
10 05:53 Calm 10.00 Fair CLR 48.9 46 90% 30.11 1020.7
10 04:53 Calm 10.00 Fair CLR 50 46.9 89% 30.09 1019.9
10 03:53 N 5 10.00 Fair CLR 50 46.9 89% 49 30.09 1019.7
10 02:53 N 3 10.00 Fair CLR 51.1 46.9 86% 30.09 1019.9
10 01:53 N 3 10.00 Fair CLR 52 48 86% 30.1 1020.0
10 00:53 N 3 10.00 Fair CLR 54 48 68 54 80% 30.09 1019.7
Date Time (cdt) Wind (mph) Vis. (mi.) Weather Sky Cond. Air Dwpt Max. Min. Relative Humidity Wind Chill (°F) Heat Index (°F) altimeter (in) sea level (mb) 1 hr 3 hr 6 hr
6 hour
Temperature (ºF) Pressure Precipitation (in)